STARLINK-1875 (47160 NORAD) Tracking and Keplerian Element Data

This shows tracking and keplerian element data for the satellite.

Feedback or suggestion? Click here.




ElementValue
Catalog47160
NameSTARLINK-1875
Epoch Orbit177
Epoch Day15.91667824
Epoch Year2021
RAAN98.5763
Inclination53.0553
Eccentricity0.000152
Argument of Perigee46.8658
Mean Anonmoly347.3663
Mean Motion15.62782365
Decay Rate-0.00010478
L11 47160U 20088AQ 21015.91667824 -.00010478 00000-0 -10861-3 0 9999
L22 47160 53.0553 98.5763 0001520 46.8658 347.3663 15.62782365 1776

Live tracking and technical data element details for STARLINK-1875 (NORAD 47160). STARLINK-1875 can be tracked NOW for your location showing map with azimuth and elevation plus other details from your city location.

Track the satellite on the map from your city or location and see movement details for azimuth, elevation, latitude, longitude, range, height, and movement on the map or in text.







IsCatalogInMostPopularTable: catalog: 47160, numindb: 19
Update: records affected: 1



GetName: 47160 STARLINK-1875

Hit Count: updated at: Sun, 17 Jan 2021 09:17:43 GMT